Sioux City, IA

8:50 PM CDT on May 27, 2017 (GMT -0500)
Sioux Gateway

Weather History for KSUX - November, 2012

Change the Weather History Date:

Wednesday, November 28, 2012

  Actual Average Record
Temperature  
Mean Temperature 30 °F 29 °F  
Max Temperature 47 °F 39 °F 63 °F (1941)
Min Temperature 13 °F 19 °F -9 °F (1891)
Degree Days  
Heating Degree Days 35 36  
Month to date heating degree days 729 802  
Since 1 July heating degree days 1410 1402  
Cooling Degree Days 0 0  
Month to date cooling degree days 0 0  
Year to date cooling degree days 1249 869  
Moisture  
Dew Point 20 °F    
Average Humidity 67    
Maximum Humidity 96    
Minimum Humidity 38    
Precipitation  
Precipitation 0.00 in 0.04 in 0.55 in (2005)
Month to date precipitation 1.07 1.23  
Year to date precipitation 22.45 26.86  
Snow  
Snow 0.00 in 0.20 in 4.00 in (2005)
Month to date snowfall T 3.9  
Since 1 July snowfall 0.1 4.9  
Since 1 September snowfall 0.1 4.9  
Snow Depth 0.00 in    
Sea Level Pressure  
Sea Level Pressure 30.27 in    
Wind  
Wind Speed 7 mph (SE)    
Max Wind Speed 18 mph    
Max Gust Speed 22 mph    
Visibility 10 miles    
Events      
T = Trace of Precipitation, MM = Missing Value Source: NWS Daily Summary

Daily Weather History Graph

Daily Weather History Graph

Search for Another Location

Airport or City:

Trip Planner

Search our weather history database for the weather conditions in past years. The results will help you decide how hot, cold, wet, or windy it might be!

Date:

Astronomy

Nov. 28, 2012 Rise Set
Actual Time 7:32 AM CST 4:54 PM CST
Civil Twilight 7:01 AM CST 5:25 PM CST
Nautical Twilight 6:26 AM CST 6:00 PM CST
Astronomical Twilight 5:52 AM CST 6:34 PM CST
Moon 5:10 PM CST 7:30 AM CST
Length of Visible Light 10h 24m
Length of Day
9h 22m
Full, 100% of the Moon is Illuminated
Nov 28
Full
Dec 6
Last Quarter
Dec 13
New
Dec 19
First Quarter
Dec 28
Full

Hourly Weather History & Observations

Time (CST) Temp. Windchill Dew Point Humidity Pressure Visibility Wind Dir Wind Speed Gust Speed Precip Events Conditions
12:52 AM 25.0 °F 20.7 °F 21.0 °F 85% 30.35 in 10.0 mi North 3.5 mph - N/A   Clear
1:52 AM 21.9 °F 14.5 °F 19.9 °F 92% 30.34 in 10.0 mi NNW 5.8 mph - N/A   Clear
2:52 AM 18.0 °F - 15.1 °F 88% 30.38 in 10.0 mi Calm Calm - N/A   Clear
3:52 AM 17.1 °F - 15.1 °F 92% 30.38 in 10.0 mi Calm Calm - N/A   Clear
4:52 AM 17.1 °F - 15.1 °F 92% 30.38 in 10.0 mi Calm Calm - N/A   Clear
5:52 AM 14.0 °F - 12.0 °F 92% 30.40 in 10.0 mi Calm Calm - N/A   Clear
6:52 AM 14.0 °F - 12.0 °F 92% 30.42 in 10.0 mi Calm Calm - N/A   Clear
7:52 AM 15.1 °F 9.4 °F 12.9 °F 91% 30.42 in 10.0 mi East 3.5 mph - N/A   Clear
8:52 AM 19.9 °F 14.9 °F 18.0 °F 92% 30.42 in 9.0 mi SE 3.5 mph - N/A   Clear
9:52 AM 26.1 °F 18.4 °F 23.0 °F 88% 30.39 in 10.0 mi ESE 6.9 mph - N/A   Clear
10:52 AM 33.1 °F 25.5 °F 25.0 °F 72% 30.38 in 10.0 mi SSE 9.2 mph - N/A   Clear
11:52 AM 39.0 °F 31.4 °F 26.1 °F 60% 30.34 in 10.0 mi SSE 12.7 mph - N/A   Clear
12:52 PM 45.0 °F 39.3 °F 28.0 °F 52% 30.29 in 10.0 mi South 11.5 mph - N/A   Clear
1:52 PM 46.0 °F 39.6 °F 25.0 °F 44% 30.24 in 10.0 mi SSE 15.0 mph - N/A   Clear
2:52 PM 46.9 °F - 23.0 °F 39% 30.20 in 10.0 mi South 16.1 mph 21.9 mph N/A   Clear
3:52 PM 45.0 °F 39.3 °F 23.0 °F 42% 30.19 in 10.0 mi South 11.5 mph - N/A   Clear
4:52 PM 41.0 °F 34.7 °F 24.1 °F 51% 30.17 in 10.0 mi SSE 10.4 mph - N/A   Clear
5:52 PM 39.0 °F 33.4 °F 23.0 °F 53% 30.16 in 10.0 mi SE 8.1 mph - N/A   Clear
6:52 PM 30.9 °F 22.8 °F 21.0 °F 67% 30.15 in 10.0 mi SE 9.2 mph - N/A   Clear
7:52 PM 32.0 °F 24.8 °F 21.0 °F 64% 30.13 in 10.0 mi East 8.1 mph - N/A   Clear
8:52 PM 33.1 °F 26.9 °F 21.9 °F 64% 30.12 in 10.0 mi ESE 6.9 mph - N/A   Clear
9:52 PM 32.0 °F 25.6 °F 21.9 °F 66% 30.12 in 10.0 mi ESE 6.9 mph - N/A   Clear
10:52 PM 32.0 °F 26.4 °F 23.0 °F 69% 30.09 in 10.0 mi SSE 5.8 mph - N/A   Clear
11:52 PM 27.0 °F 18.7 °F 21.0 °F 78% 30.09 in 10.0 mi East 8.1 mph - N/A   Clear